Погода в Верхнеуральске

Россия / Челябинская область     53°52′34″N   59°13′01″E
темп.,
°C
ветер,
м/с
пор.,
м/с
влажн.,
%
обл.,
%
осадки,
мм/ч
давл.,
гПа
погр.,
м
17 мая, пн
пн1723:00+17юз01615 1.2 102111
02:00+16сз225616 0.0 102111
05:00+15зюз22581 0.0 102217
08:00+21зюз22443 0.0 1021147
11:00+28зюз45265 0.0 10202773
14:00+29зюз562273 0.0 10193803
17:00+28з562599 0.0 10191795
20:00+23зюз3539100 0.0 1018112
18 мая, вт
вт1823:00+18з12535 0.0 101911
02:00+17з224678 0.0 101811
05:00+16з225012 0.0 101811
08:00+22зсз484289 0.0 1017280
11:00+27сз57288 0.0 10162398
14:00+27сз672692 0.0 10152942
17:00+27ссз782735 0.1 10142857
20:00+22ссв48410 0.0 1015205
19 мая, ср
ср1923:00+16св712710 0.0 1018572
02:00+13св6118055 0.0 1020661
05:00+10св6128928 0.0 1022503
08:00+12св796862 0.0 1023884
11:00+15всв78520 0.0 10231179
14:00+19всв67410 0.0 10221600
17:00+20всв66374 0.0 10221602
20:00+17всв47485 0.0 1023247
20 мая, чт
чт2023:00+12всв366199 0.0 102496
02:00+10всв2365100 0.0 102543
05:00+9св11718 0.0 102610
08:00+14в23520 0.0 1026358
11:00+18юв34360 0.0 10251259
14:00+21юв44290 0.0 10241685
17:00+22юв45270 0.0 10231813
20:00+18юв35410 0.0 102189
21 мая, пт
пт2123:00+13юв22490 0.0 102210
02:00+12юв11511 0.0 102310
05:00+10ю11550 0.0 102310
08:00+16ю35460 0.0 1023330
11:00+21ю57337 0.0 10221485
14:00+24ю57250 0.0 10202209
17:00+25ююз672676 0.0 10192793
20:00+20зюз34435 0.0 102065